Погода в Хемнице

Германия     50°50′07″N   13°01′21″E
темп.,
°C
ветер,
м/с
пор.,
м/с
влажн.,
%
обл.,
%
осадки,
мм/ч
давл.,
гПа
погр.,
м
13 мая, чт
чт1323:00+9зсз3799100 1.6 1009654
02:00+8сз4799100 1.9 1008696
05:00+8зсз5999100 0.6 1007670
08:00+7зсз5999100 5.3 1007639
11:00+8сз51099100 2.0 1007763
14:00+8зсз51098100 6.4 1006757
17:00+7зсз41098100 3.4 1006643
20:00+7зсз3999100 10.8 1006572
14 мая, пт
пт1423:00+7з3899100 3.6 1007436
02:00+7з2799100 3.7 1007272
05:00+7юз2398100 0.0 1006102
08:00+9з3695100 0.1 1007418
11:00+12зсз467997 0.5 10071075
14:00+11з468799 1.5 1007657
17:00+12зсз4587100 1.9 1007833
20:00+10з2292100 3.4 100833
15 мая, сб
сб1523:00+7ююз229595 0.1 101032
02:00+6ююз239516 0.1 101058
05:00+6ююз389749 0.0 1010175
08:00+9юз389090 0.0 1010408
11:00+13зюз466094 0.0 10091240
14:00+14зюз465899 0.9 10071589
17:00+14з3667100 0.6 1005805
20:00+9зюз41191100 1.8 1006510
16 мая, вс
вс1623:00+8юз4991100 0.1 1007554
02:00+7ююз38944 0.7 1007429
05:00+5юз411967 0.0 1007446
08:00+9зюз498713 0.0 1006709
11:00+11зюз477553 0.4 1006997
14:00+13зюз577295 1.7 10051311
17:00+12юз477781 1.9 10041412
20:00+9зюз41088100 2.9 1005441
17 мая, пн
пн1723:00+7юз311965 0.0 1005362
02:00+5ююз389626 0.0 1006201
05:00+5ю3109782 0.0 1006257
08:00+9юз598853 0.1 1006944
11:00+9юз5984100 0.2 10071065
14:00+11зюз697286 0.3 10071085
17:00+11зюз587245 0.3 10071185
20:00+9зюз59795 0.4 1007749